TimeCDT,TemperatureF,Dew PointF,Humidity,Sea Level PressureIn,VisibilityMPH,Wind Direction,Wind SpeedMPH,Gust SpeedMPH,PrecipitationIn,Events,Conditions,WindDirDegrees,DateUTC
12:53 AM,80.1,46.0,30,29.74,10.0,South,13.8,-,N/A,,Clear,190,2012-06-26 05:53:00
1:53 AM,80.1,48.9,34,29.73,10.0,South,11.5,-,N/A,,Clear,190,2012-06-26 06:53:00
2:53 AM,73.9,48.9,41,29.73,10.0,South,11.5,-,N/A,,Clear,190,2012-06-26 07:53:00
3:53 AM,73.0,45.0,37,29.74,10.0,SSW,11.5,-,N/A,,Clear,210,2012-06-26 08:53:00
4:53 AM,71.1,44.1,38,29.75,10.0,SSW,10.4,-,N/A,,Clear,200,2012-06-26 09:53:00
5:53 AM,71.1,45.0,39,29.75,10.0,SSW,10.4,-,N/A,,Clear,200,2012-06-26 10:53:00
6:53 AM,72.0,46.0,40,29.77,10.0,WSW,6.9,-,N/A,,Clear,250,2012-06-26 11:53:00
7:53 AM,75.0,46.9,37,29.77,10.0,SW,13.8,-,N/A,,Clear,220,2012-06-26 12:53:00
8:53 AM,87.1,46.9,25,29.75,10.0,SW,18.4,25.3,N/A,,Clear,220,2012-06-26 13:53:00
9:53 AM,95.0,44.1,17,29.75,10.0,SW,20.7,33.4,N/A,,Clear,220,2012-06-26 14:53:00
10:53 AM,98.1,46.0,17,29.74,10.0,SW,24.2,29.9,N/A,,Clear,220,2012-06-26 15:53:00
11:53 AM,102.0,45.0,14,29.73,10.0,SW,18.4,27.6,N/A,,Clear,230,2012-06-26 16:53:00
12:53 PM,102.9,42.1,13,29.70,10.0,SSW,23.0,28.8,N/A,,Clear,200,2012-06-26 17:53:00
1:53 PM,105.1,39.9,11,29.68,10.0,SW,20.7,31.1,N/A,,Clear,220,2012-06-26 18:53:00
2:53 PM,107.1,41.0,11,29.67,10.0,SW,23.0,31.1,N/A,,Clear,220,2012-06-26 19:53:00
3:53 PM,108.0,35.1,8,29.64,10.0,SSW,25.3,35.7,N/A,,Clear,210,2012-06-26 20:53:00
4:53 PM,108.0,36.0,9,29.63,10.0,SSW,20.7,28.8,N/A,,Clear,210,2012-06-26 21:53:00
5:53 PM,107.1,33.1,8,29.62,10.0,SSW,20.7,32.2,N/A,,Clear,210,2012-06-26 22:53:00
6:53 PM,106.0,32.0,8,29.61,10.0,SSW,24.2,31.1,N/A,,Clear,200,2012-06-26 23:53:00
7:53 PM,102.9,33.1,9,29.62,10.0,SSW,19.6,26.5,N/A,,Clear,200,2012-06-27 00:53:00
8:53 PM,95.0,35.1,12,29.62,10.0,South,10.4,-,N/A,,Clear,190,2012-06-27 01:53:00
9:53 PM,90.0,37.9,16,29.63,10.0,South,11.5,-,N/A,,Clear,180,2012-06-27 02:53:00
10:53 PM,84.9,37.9,19,29.65,10.0,South,10.4,-,N/A,,Clear,180,2012-06-27 03:53:00
11:53 PM,84.9,39.9,20,29.66,10.0,South,12.7,-,N/A,,Clear,180,2012-06-27 04:53:00